Location: Aiyekoto
(8.4333°N, 4.3667°E)
Time: 23:26:15
(UTC+00:00)

H-2A R/B - Pass Details

Date: 07 June 2020
Orbit: 530 x 652 km, 98.3° (Epoch: 10 July)

Event Time Altitude Azimuth Distance (km) Brightness Sun altitude
Rises 04:56:17 0° 359° (N) 2,941 6.4 -7.0°
Reaches altitude 10° 04:58:35 10° 352° (N) 2,041 5.4 -6.5°
Maximum altitude 05:02:45 40° 283° (WNW) 966 3.2 -5.5°
Drops below altitude 10° 05:06:57 10° 214° (SW) 2,049 4.7 -4.6°
Sets 05:09:15 0° 207° (SSW) 2,955 5.6 -4.1°
